Regional Weather Roundup
Issued by NWS

Home | Current Version | Previous Version | Graphics & Text | Print | Product List | Glossary On
Versions: 1 2 3 4 5 6 7 8 9 10 11 12 13 14 15 16 17 18 19 20 21 22 23 24 25 26 27 28 29 30 31 32 33 34 35 36 37 38 39 40 41 42 43 44 45 46 47 48 49 50
000
ASUS43 KLOT 241510
RWRIL

ILLINOIS REGIONAL WEATHER ROUNDUP
NATIONAL WEATHER SERVICE CHICAGO/ROMEOVILLE IL
1000 AM CDT THU JUL 24 2014

NOTE: "FAIR" INDICATES FEW OR NO CLOUDS BELOW 12,000 FEET WITH NO
SIGNIFICANT WEATHER AND/OR OBSTRUCTIONS TO VISIBILITY.

* THESE STATIONS ARE NOT UNDER NWS QUALITY CONTROL. THEY ALSO MAY NOT
  REPORT WEATHER SUCH AS PRECIPITATION OR FOG.

ILZ001-002-007-009-015-016-024-241600-
NORTHWEST ILLINOIS

CITY           SKY/WX    TMP DP  RH WIND       PRES   REMARKS
MOLINE         SUNNY     70  52  52 SE9       30.17S
STERLING*      MOSUNNY   70  54  56 E7        30.18S
SAVANNA*       SUNNY     72  49  44 E5        30.18S
$$

ILZ003-004-008-010-011-017-018-241600-
NORTH CENTRAL ILLINOIS

CITY           SKY/WX    TMP DP  RH WIND       PRES   REMARKS
ROCKFORD       MOSUNNY   70  48  45 NE6       30.20S
FREEPORT*      MOSUNNY   65  53  65 E5        30.21S
ROCHELLE*      SUNNY     69  49  47 NE8       30.19R
DE KALB*       SUNNY     67  51  56 NE9       30.19F
PERU*          SUNNY     68  53  58 E12       30.18S
$$

ILZ005-006-012>014-019>023-241600-
NORTHEAST ILLINOIS

CITY           SKY/WX    TMP DP  RH WIND       PRES   REMARKS
CHICAGO-OHARE  MOSUNNY   68  52  56 NE12      30.16F
CHICAGO-MIDWAY MOSUNNY   70  57  63 NE12      30.16F
AURORA         SUNNY     70  51  51 NE10      30.18S
LANSING*       SUNNY     66  56  70 N7        30.16F
JOLIET*        SUNNY     68  53  58 NE9       30.17S
WAUKEGAN       SUNNY     65  55  70 NE9       30.17F
DUPAGE AIRPORT SUNNY     70  52  52 NE10      30.17F
KANKAKEE*      PTSUNNY   68  58  71 NE12      30.15F
WHEELING       SUNNY     68  54  60 NE9       30.18F
MORRIS*        SUNNY     70  56  61 NE3       30.16F
ROMEOVILLE*    MOSUNNY   69  53  58 E10G16    30.17S
NORTHERLY ISL    N/A     64  57  78 NE10        N/A
$$

LMZ740>746-241600-
SOUTHERN LAKE MICHIGAN

STATION/POSITION SKY/WX   TEMP    WIND        PRES    VSBY  WAVE
                          AIR SEA DIR/SP/G                  HT/PER
                          (F)     (DEG/KT/KT) (MB)    (MI)  (FT/S)
SOUTHERN BUOY              59 60  360/  8/ 10 1022.1F         1/ 3
WAUKEGAN HARBOR            62      40/ 13/ 14   N/A
HARRISON CRIB              61      20/ 14/ 16   N/A
BURNHAM HARBOR             64      10/ 10/ 12   N/A
CALUMET HARBOR             64      10/  9/ 12 1020.3F
MICHIGAN CITY              65     360/  9/ 11   N/A
MICHIGAN CITY 6N           64 69   30/  8/ 12   N/A           3/ 2
ST. JOSEPH                 55 50  330/  6/  8   N/A           2/ 2
$$

ILZ025>027-034>036-040-047-049-050-058-095>099-241600-
WEST-CENTRAL ILLINOIS

CITY           SKY/WX    TMP DP  RH WIND       PRES   REMARKS
QUINCY         SUNNY     71  50  47 NE10      30.17S
GALESBURG*     SUNNY     73  54  52 E7        30.17F
MACOMB*        SUNNY     69  54  58 E7        30.20S
JACKSONVILLE*  SUNNY     71  60  66 E9        30.17F
PITTSFIELD*    SUNNY     71  58  64 NE10      30.18S
$$

ILZ028>032-037-038-041>044-048-051>054-059>061-241600-
CENTRAL ILLINOIS

CITY           SKY/WX    TMP DP  RH WIND       PRES   REMARKS
PONTIAC        SUNNY     70  57  64 NE10      30.16F
PEORIA         SUNNY     71  50  47 NE10      30.17S
LACON*         SUNNY     68  54  60 NE6       30.17S
LINCOLN*       SUNNY     71  57  63 NE10      30.14S
SPRINGFIELD    SUNNY     71  58  63 NE9       30.16F
TAYLORVILLE    SUNNY     68  57  68 NE9       30.15S
$$

ILZ033-039-045-046-055>057-062-063-241600-
EAST-CENTRAL ILLINOIS

CITY           SKY/WX    TMP DP  RH WIND       PRES   REMARKS
CHAMPAIGN      SUNNY     70  58  65 NE12      30.13F
DANVILLE*      MOSUNNY   65  60  81 N5        30.11F
RANTOUL*       SUNNY     70  55  59 NE14      30.15S
MATTOON        MOSUNNY   67  60  78 N9        30.13S
PARIS*         MOSUNNY   68  61  78 NE6       30.14S
$$

ILZ079-100>102-241600-
SOUTHWEST ILLINOIS

CITY           SKY/WX    TMP DP  RH WIND       PRES   REMARKS
ALTON          MOSUNNY   68  63  83 N12       30.15S
BELLEVILLE     SUNNY     70  60  70 NE8       30.13S
CAHOKIA*       SUNNY     71  56  58 N7        30.14S
SPARTA*        SUNNY     64  57  77 N7        30.14R
$$

ILZ064>066-069>071-074>076-080>082-084>086-088>090-092>094-241600-
SOUTH-CENTRAL ILLINOIS

CITY           SKY/WX    TMP DP  RH WIND       PRES   REMARKS
CARBONDALE     SUNNY     69  57  65 N7        30.11S
CAIRO*         SUNNY     71  60  67 N6        30.09F
EFFINGHAM*     MOSUNNY   68  56  67 N6        30.13F
MARION         SUNNY     68  59  73 NE9       30.11S
MT. VERNON     MOSUNNY   68  59  73 NE5       30.13R
CENTRALIA*     SUNNY     71  58  63 N6        30.12S
SALEM*         SUNNY     70  61  73 NE7       30.13R
METROPOLIS*    SUNNY     69  55  61 N7        30.08S
$$

ILZ067-068-072-073-078-083-087-091-241600-
SOUTHEAST ILLINOIS

CITY           SKY/WX    TMP DP  RH WIND       PRES   REMARKS
LAWRENCEVILLE  SUNNY     71  60  68 N9        30.11R
FLORA*         SUNNY     68  59  72 N8        30.12S
FAIRFIELD*     SUNNY     70  63  78 N7        30.11R
HARRISBURG*    SUNNY     66  60  80 N6        30.11R
ROBINSON*      SUNNY     72  61  67 NE7       30.12S
$$

ABBREVIATIONS USED IN REMARKS
   TC - TEMPERATURE IN CELSIUS
  WCI - WIND CHILL INDEX
   HX - HEAT INDEX
  VSB - VISIBILITY
$$



USA.gov is the U.S. government's official web portal to all federal, state and local government web resources and services.